• In Switzerland
  • List of Countries
  • For 7 days
  • Water Temperature
  • Satellite Maps
  • Weather Map
  • Weather Widgets
  • user-avatar
    Login

    Hourly Weather Ali Sabieh

    Today, 20 February, Tuesday

    Time Temperature Precipitation Wind Pressure Humidity
    00:00 +24°C° 0 mm 3 mps 697 mmHg 69%
    01:00 +24°C° 0 mm 3 mps 697 mmHg 71%
    02:00 +24°C° 0 mm 3 mps 697 mmHg 72%
    03:00 +23°C° 0 mm 2 mps 696 mmHg 74%
    04:00 +23°C° 0 mm 2 mps 697 mmHg 76%
    05:00 +23°C° 0 mm 2 mps 697 mmHg 77%
    06:00 +21°C° 0 mm 2 mps 697 mmHg 79%
    07:00 +23°C° 0 mm 2 mps 697 mmHg 75%
    08:00 +24°C° 0 mm 3 mps 698 mmHg 71%
    09:00 +25°C° 0 mm 3 mps 698 mmHg 65%
    10:00 +26°C° 0 mm 4 mps 698 mmHg 60%
    11:00 +28°C° 0 mm 4 mps 698 mmHg 55%
    12:00 +29°C° 0 mm 5 mps 698 mmHg 50%
    13:00 +29°C° 0 mm 5 mps 697 mmHg 49%
    14:00 +30°C° 0 mm 5 mps 697 mmHg 48%
    15:00 +30°C° 0 mm 6 mps 696 mmHg 49%
    16:00 +29°C° 0 mm 6 mps 696 mmHg 53%
    17:00 +28°C° 0 mm 6 mps 695 mmHg 57%
    18:00 +27°C° 0 mm 6 mps 695 mmHg 61%
    19:00 +26°C° 0 mm 6 mps 695 mmHg 64%
    20:00 +25°C° 0 mm 5 mps 696 mmHg 68%
    21:00 +25°C° 0 mm 4 mps 696 mmHg 71%
    22:00 +23°C° 0 mm 4 mps 696 mmHg 73%
    23:00 +24°C° 0 mm 3 mps 696 mmHg 74%

    Tomorrow, 21 February, Wednesday

    Time Temperature Precipitation Wind Pressure Humidity
    00:00 +24°C° 0 mm 3 mps 696 mmHg 76%
    01:00 +22°C° 0 mm 3 mps 696 mmHg 77%
    02:00 +22°C° 0 mm 3 mps 695 mmHg 78%
    03:00 +22°C° 0 mm 3 mps 695 mmHg 80%
    04:00 +21°C° 0 mm 3 mps 695 mmHg 81%
    05:00 +21°C° 0 mm 3 mps 696 mmHg 82%
    06:00 +21°C° 0 mm 2 mps 696 mmHg 83%
    07:00 +22°C° 0 mm 3 mps 696 mmHg 79%
    08:00 +22°C° 0 mm 3 mps 697 mmHg 74%
    09:00 +24°C° 0 mm 3 mps 697 mmHg 70%
    10:00 +26°C° 0 mm 3 mps 697 mmHg 64%
    11:00 +27°C° 0 mm 4 mps 697 mmHg 58%
    12:00 +28°C° 0 mm 5 mps 697 mmHg 53%
    13:00 +29°C° 0 mm 5 mps 697 mmHg 50%
    14:00 +29°C° 0 mm 6 mps 696 mmHg 48%
    15:00 +30°C° 0 mm 6 mps 696 mmHg 46%
    16:00 +29°C° 0 mm 6 mps 695 mmHg 49%
    17:00 +28°C° 0 mm 6 mps 695 mmHg 53%
    18:00 +27°C° 0 mm 7 mps 695 mmHg 57%
    19:00 +26°C° 0 mm 6 mps 695 mmHg 60%
    20:00 +25°C° 0 mm 5 mps 696 mmHg 63%
    21:00 +23°C° 0 mm 5 mps 696 mmHg 66%
    22:00 +23°C° 0 mm 4 mps 696 mmHg 68%
    23:00 +22°C° 0 mm 4 mps 696 mmHg 70%

    Day after tomorrow, 22 February, Thursday

    Time Temperature Precipitation Wind Pressure Humidity
    00:00 +22°C° 0 mm 4 mps 696 mmHg 72%
    01:00 +22°C° 0 mm 4 mps 696 mmHg 74%
    02:00 +21°C° 0 mm 4 mps 695 mmHg 76%
    03:00 +21°C° 0 mm 3 mps 695 mmHg 79%
    04:00 +21°C° 0 mm 3 mps 695 mmHg 79%
    05:00 +20°C° 0 mm 3 mps 695 mmHg 80%
    06:00 +20°C° 0 mm 3 mps 695 mmHg 81%
    07:00 +21°C° 0 mm 4 mps 696 mmHg 75%
    08:00 +22°C° 0 mm 4 mps 697 mmHg 69%
    09:00 +23°C° 0 mm 4 mps 697 mmHg 63%
    10:00 +26°C° 0 mm 4 mps 697 mmHg 56%
    11:00 +27°C° 0 mm 5 mps 697 mmHg 49%
    12:00 +29°C° 0 mm 5 mps 697 mmHg 41%
    13:00 +29°C° 0 mm 5 mps 697 mmHg 40%
    14:00 +30°C° 0 mm 5 mps 696 mmHg 38%
    15:00 +30°C° 0 mm 6 mps 695 mmHg 36%
    16:00 +29°C° 0 mm 6 mps 695 mmHg 39%
    17:00 +28°C° 0 mm 6 mps 695 mmHg 43%
    18:00 +27°C° 0 mm 6 mps 695 mmHg 46%
    19:00 +26°C° 0 mm 5 mps 695 mmHg 50%
    20:00 +25°C° 0 mm 4 mps 696 mmHg 53%
    21:00 +23°C° 0 mm 4 mps 696 mmHg 57%
    22:00 +24°C° 0 mm 3 mps 696 mmHg 59%
    23:00 +24°C° 0 mm 3 mps 696 mmHg 61%

    23 February, Friday

    Time Temperature Precipitation Wind Pressure Humidity
    00:00 +22°C° 0 mm 3 mps 696 mmHg 63%
    01:00 +23°C° 0 mm 2 mps 695 mmHg 65%
    02:00 +21°C° 0 mm 2 mps 695 mmHg 68%
    03:00 +21°C° 0 mm 2 mps 694 mmHg 70%
    04:00 +21°C° 0 mm 2 mps 695 mmHg 72%
    05:00 +20°C° 0 mm 2 mps 695 mmHg 74%
    06:00 +20°C° 0 mm 2 mps 695 mmHg 76%
    07:00 +21°C° 0 mm 2 mps 696 mmHg 70%
    08:00 +23°C° 0 mm 2 mps 696 mmHg 64%
    09:00 +24°C° 0 mm 3 mps 697 mmHg 58%
    10:00 +26°C° 0 mm 3 mps 697 mmHg 52%
    11:00 +28°C° 0 mm 3 mps 697 mmHg 46%
    12:00 +29°C° 0 mm 4 mps 696 mmHg 39%
    13:00 +30°C° 0 mm 4 mps 696 mmHg 39%
    14:00 +30°C° 0 mm 5 mps 695 mmHg 38%
    15:00 +32°C° 0 mm 5 mps 694 mmHg 37%
    16:00 +30°C° 0 mm 5 mps 694 mmHg 42%
    17:00 +29°C° 0 mm 5 mps 694 mmHg 47%
    18:00 +27°C° 0 mm 6 mps 694 mmHg 52%
    19:00 +27°C° 0 mm 5 mps 695 mmHg 56%
    20:00 +26°C° 0 mm 4 mps 695 mmHg 60%
    21:00 +25°C° 0 mm 4 mps 696 mmHg 64%
    22:00 +23°C° 0 mm 4 mps 696 mmHg 66%
    23:00 +24°C° 0 mm 3 mps 695 mmHg 68%

    24 February, Saturday

    Time Temperature Precipitation Wind Pressure Humidity
    00:00 +22°C° 0 mm 3 mps 695 mmHg 70%
    01:00 +22°C° 0 mm 3 mps 695 mmHg 72%
    02:00 +21°C° 0 mm 3 mps 694 mmHg 75%
    03:00 +21°C° 0 mm 3 mps 694 mmHg 77%
    04:00 +21°C° 0 mm 3 mps 694 mmHg 78%
    05:00 +20°C° 0 mm 3 mps 694 mmHg 80%
    06:00 +20°C° 0 mm 3 mps 695 mmHg 81%
    07:00 +21°C° 0 mm 3 mps 695 mmHg 75%
    08:00 +24°C° 0 mm 3 mps 696 mmHg 68%
    09:00 +25°C° 0 mm 3 mps 697 mmHg 61%
    10:00 +26°C° 0 mm 4 mps 697 mmHg 56%
    11:00 +28°C° 0 mm 4 mps 696 mmHg 51%
    12:00 +29°C° 0 mm 4 mps 696 mmHg 46%
    13:00 +30°C° 0 mm 5 mps 695 mmHg 45%
    14:00 +30°C° 0 mm 5 mps 695 mmHg 45%
    15:00 +32°C° 0 mm 6 mps 694 mmHg 44%
    16:00 +30°C° 0 mm 6 mps 694 mmHg 48%
    17:00 +29°C° 0 mm 6 mps 694 mmHg 53%
    18:00 +27°C° 0 mm 6 mps 694 mmHg 57%
    19:00 +27°C° 0 mm 5 mps 695 mmHg 61%
    20:00 +26°C° 0 mm 5 mps 695 mmHg 64%
    21:00 +25°C° 0 mm 4 mps 695 mmHg 68%
    22:00 +23°C° 0 mm 4 mps 695 mmHg 70%
    23:00 +23°C° 0 mm 4 mps 695 mmHg 73%

    25 February, Sunday

    Time Temperature Precipitation Wind Pressure Humidity
    00:00 +24°C° 0 mm 3 mps 695 mmHg 75%
    01:00 +22°C° 0 mm 3 mps 694 mmHg 77%
    02:00 +22°C° 0 mm 3 mps 694 mmHg 79%
    03:00 +22°C° 0 mm 3 mps 694 mmHg 80%
    04:00 +22°C° 0 mm 3 mps 694 mmHg 81%
    05:00 +22°C° 0 mm 3 mps 694 mmHg 82%
    06:00 +22°C° 0 mm 3 mps 695 mmHg 83%
    07:00 +22°C° 0 mm 4 mps 695 mmHg 79%
    08:00 +23°C° 0 mm 4 mps 696 mmHg 75%
    09:00 +25°C° 0 mm 4 mps 696 mmHg 71%
    10:00 +26°C° 0 mm 4 mps 696 mmHg 67%
    11:00 +27°C° 0 mm 4 mps 696 mmHg 62%
    12:00 +28°C° 0 mm 4 mps 695 mmHg 58%
    13:00 +29°C° 0 mm 5 mps 695 mmHg 56%
    14:00 +29°C° 0 mm 5 mps 694 mmHg 55%
    15:00 +30°C° 0 mm 5 mps 694 mmHg 54%
    16:00 +29°C° 0 mm 5 mps 694 mmHg 58%
    17:00 +28°C° 0 mm 5 mps 694 mmHg 62%
    18:00 +27°C° 0 mm 5 mps 694 mmHg 66%
    19:00 +26°C° 0 mm 5 mps 694 mmHg 69%
    20:00 +25°C° 0 mm 4 mps 695 mmHg 72%
    21:00 +25°C° 0 mm 4 mps 695 mmHg 75%
    22:00 +23°C° 0 mm 4 mps 695 mmHg 77%
    23:00 +23°C° 0 mm 4 mps 695 mmHg 78%
    Show more